GFSSW_250_spd_057.txt.gz
Wind_Speed
71 73 71 79 79 84 80 82 80 77 73 66 68 63 60 56 56 59 54 50 53 51 50 48 48 47 44 36 45 36 36 39 39 34 33 32 30 23 22 19 19 18 16 13 12
71 74 72 71 80 81 78 81 84 81 73 75 74 65 58 57 61 57 55 51 52 52 52 53 47 45 45 45 39 34 39 37 37 40 35 34 32 24 21 19 16 17 16 14 13
69 72 76 68 75 82 83 78 78 77 74 69 71 73 59 59 59 57 53 53 54 55 50 52 51 47 46 44 41 37 41 35 40 43 37 35 34 26 21 19 17 15 16 14 15
64 71 72 78 68 77 81 84 73 77 72 69 73 70 69 66 71 63 61 57 59 56 55 52 45 48 50 43 42 38 34 40 39 41 39 36 35 29 22 21 18 15 13 15 15
66 69 75 81 78 76 77 82 82 79 74 73 69 69 68 66 63 67 66 62 62 58 56 51 52 53 44 46 42 40 38 41 44 43 42 43 36 32 24 24 20 17 14 14 14
66 67 70 76 82 79 76 81 84 79 77 78 70 67 69 65 63 65 62 59 59 55 52 55 53 52 51 50 45 47 45 42 42 41 40 43 37 37 28 26 22 18 16 14 13
76 62 67 70 76 84 74 75 83 87 86 81 74 74 69 68 67 66 63 64 62 61 62 59 54 54 51 47 47 47 45 45 38 40 43 43 36 38 36 30 26 22 19 16 14
79 76 67 68 73 77 82 75 74 76 84 85 85 79 70 70 72 68 66 61 63 63 62 60 56 55 52 52 50 47 45 42 41 39 45 40 39 40 39 35 31 25 20 18 16
86 78 74 70 72 71 78 83 77 73 76 80 82 84 80 78 70 71 71 72 66 63 62 62 59 55 54 55 52 51 51 47 48 46 43 38 41 41 39 36 34 29 25 23 21
90 88 81 77 71 71 73 81 81 77 77 78 78 78 78 78 84 83 77 74 70 66 66 64 61 60 59 60 59 57 52 51 47 42 40 41 43 41 40 37 34 33 30 27 26
92 92 87 84 79 78 77 78 78 82 81 76 74 75 77 78 78 76 75 77 76 73 69 68 64 62 69 67 61 58 53 51 49 45 39 41 45 46 43 40 37 37 35 33 32
85 90 94 89 86 84 80 77 72 80 82 82 77 75 73 77 75 76 76 72 71 73 71 70 66 69 66 66 62 61 58 57 51 46 40 42 45 45 42 42 39 38 38 36 36
95 89 90 97 92 89 87 85 81 75 75 83 82 81 78 77 73 74 74 74 73 73 73 71 71 72 72 67 64 63 60 61 53 47 44 45 42 43 44 43 41 45 42 41 39
97 96 90 97 102 95 91 91 90 88 82 77 82 84 83 79 77 77 71 72 73 75 76 75 69 74 73 69 68 66 63 62 57 53 51 46 37 45 47 45 44 49 45 45 41
101 100 100 94 101 103 99 94 93 92 95 89 81 75 81 84 78 78 77 76 74 74 76 73 75 76 73 71 71 68 66 65 63 59 53 49 47 45 49 45 52 50 49 48 46
94 103 106 98 97 102 101 101 98 99 97 91 88 82 78 77 82 83 84 82 80 79 78 74 74 74 73 73 75 70 71 72 70 67 59 58 55 36 50 50 57 53 54 52 50
89 92 101 105 95 101 100 101 102 106 99 92 89 90 89 85 82 81 85 85 84 85 80 80 79 80 79 78 78 76 76 78 77 73 63 67 59 36 43 55 58 58 60 58 54
89 92 95 93 102 101 101 100 109 101 102 101 97 95 95 91 89 87 85 83 82 85 84 88 86 84 85 82 85 85 83 81 79 82 73 68 54 43 47 54 61 63 64 63 60
95 95 91 100 102 102 106 109 114 101 101 98 103 102 99 97 97 95 91 90 89 82 86 92 89 86 87 89 90 87 85 83 90 86 82 71 55 51 51 56 56 67 68 64 64
103 101 98 90 99 111 109 108 108 111 109 105 103 104 106 103 102 100 98 95 93 94 98 95 90 89 90 93 91 89 88 90 91 90 88 72 66 57 60 61 65 64 68 70 70
107 106 104 101 101 104 108 105 108 111 111 116 111 109 106 110 108 104 103 100 100 98 101 99 98 96 94 93 94 96 95 94 95 94 93 83 74 65 64 63 67 69 70 73 74
115 113 106 111 108 103 101 104 102 99 102 107 110 116 114 110 110 116 108 107 104 105 104 107 107 103 99 98 100 99 99 99 98 92 96 94 79 71 73 73 74 76 76 78 79
119 119 119 113 106 104 105 105 104 99 98 97 98 103 112 117 117 113 109 110 112 112 109 110 110 110 108 107 108 106 103 102 101 104 104 103 91 73 82 82 80 80 80 82 84
126 125 123 117 110 104 105 107 108 104 103 97 96 98 98 100 108 116 115 114 113 112 113 115 116 115 112 109 109 107 107 108 109 111 103 106 94 80 82 86 86 85 87 87 86
135 132 129 126 120 118 116 110 108 108 108 109 105 100 100 101 100 98 102 108 113 116 115 118 120 120 119 115 116 112 111 111 113 111 114 104 109 91 87 92 92 94 93 92 93
139 139 137 135 128 127 125 120 118 119 113 109 106 106 105 103 104 104 103 99 99 103 109 116 122 121 115 116 125 124 120 118 114 112 114 107 109 95 93 98 102 99 98 98 100
131 141 139 140 138 135 129 127 127 128 126 120 115 115 114 113 108 103 103 102 103 102 99 98 101 108 115 117 122 125 117 121 118 113 114 118 107 106 105 100 99 101 104 102 99

GFSSW_250_spd_060.txt.gz
Wind_Speed
83 86 88 79 80 88 86 81 86 82 80 75 69 67 68 66 64 57 53 56 58 42 43 38 42 50 44 39 47 42 36 38 32 37 39 36 27 29 29 21 21 21 17 14 11
86 78 89 78 78 87 88 88 83 82 83 77 75 71 68 65 74 71 54 61 50 54 52 51 51 47 50 49 48 45 37 32 36 35 33 35 29 29 33 23 20 20 21 15 13
76 84 81 80 78 77 89 84 84 80 87 76 77 69 71 71 68 65 58 58 57 51 50 47 49 47 43 44 48 42 37 37 35 31 38 38 33 30 31 26 22 19 19 18 15
78 81 77 78 78 80 80 84 90 83 75 73 74 73 73 72 72 75 66 61 57 54 56 57 57 46 45 44 45 46 47 44 34 32 40 38 39 32 33 29 25 20 18 18 17
68 73 77 73 81 82 83 85 77 83 81 77 76 76 73 67 66 69 74 64 60 60 59 49 47 47 46 50 49 42 40 36 34 38 40 37 38 37 36 31 27 24 20 17 17
75 73 74 79 79 83 82 86 86 82 84 84 84 81 77 76 75 71 63 62 62 59 55 53 55 54 55 58 49 50 42 41 43 39 40 35 35 41 43 38 29 28 25 21 18
87 71 75 79 79 82 83 85 86 86 89 88 86 86 83 76 72 73 74 74 63 66 65 60 59 60 61 57 49 47 48 46 42 36 35 34 37 40 48 39 32 32 26 24 20
85 88 67 75 77 84 85 86 88 90 87 90 86 79 79 76 75 69 70 70 68 67 64 64 62 66 57 52 49 49 48 46 45 38 36 37 42 41 41 38 35 33 31 26 23
93 87 87 68 74 79 84 85 88 87 87 88 87 86 79 74 74 76 75 70 67 68 61 61 60 62 55 57 53 52 50 46 47 41 39 38 45 41 38 36 36 38 35 29 26
94 90 87 80 70 74 81 82 84 84 86 85 86 88 86 86 84 78 72 74 69 69 66 65 64 63 62 61 57 57 57 54 49 45 42 47 49 45 39 35 40 39 36 35 32
98 95 96 83 83 75 78 82 85 82 84 85 86 83 87 89 90 88 85 81 75 70 72 70 64 60 63 60 60 56 58 56 53 50 55 58 50 47 39 37 41 38 43 39 36
91 97 99 96 85 79 84 75 79 85 87 88 83 88 83 85 86 83 82 82 80 76 74 73 71 72 71 72 71 67 62 61 58 56 59 55 49 47 41 39 36 40 44 47 45
90 97 100 101 94 89 84 83 79 79 85 87 90 80 81 86 84 84 81 79 80 81 78 75 73 73 71 70 68 64 66 68 65 59 60 58 51 48 41 38 36 42 45 48 46
96 90 100 102 95 94 93 88 86 82 86 84 87 86 83 79 80 79 78 79 79 80 80 80 80 81 77 77 74 69 70 69 67 65 61 59 47 45 44 40 37 44 46 50 45
101 95 95 104 102 102 97 93 92 94 95 87 86 85 87 86 79 81 81 81 78 80 79 76 78 77 78 77 76 73 75 74 73 67 62 54 47 47 46 41 45 50 49 47 48
106 105 98 98 100 102 104 101 98 99 94 94 90 88 84 82 83 82 81 78 79 80 80 79 77 74 78 76 77 74 75 76 76 71 62 59 54 39 53 47 49 56 52 50 50
105 108 104 94 91 99 104 107 106 107 99 99 90 91 93 85 80 79 83 82 82 80 78 78 77 79 80 78 78 77 79 81 79 74 62 63 58 43 50 56 53 56 60 57 55
99 103 109 104 100 98 96 104 115 106 99 96 95 93 92 91 93 89 81 81 79 84 83 79 77 76 78 76 79 79 78 76 77 76 69 67 54 49 53 54 57 59 64 64 61
98 101 106 109 109 105 100 99 111 116 108 105 98 98 96 94 91 89 88 89 91 88 86 84 83 82 81 80 81 78 75 78 82 77 74 66 58 58 59 61 58 59 64 69 69
98 99 102 104 112 112 114 111 106 104 112 113 104 101 98 98 99 96 95 93 90 91 91 89 91 85 78 80 82 80 81 82 83 80 79 68 69 64 64 67 65 65 66 70 73
105 99 96 100 107 113 116 111 110 111 106 106 112 111 105 104 102 100 100 96 98 96 94 95 96 89 85 82 82 85 83 84 88 87 84 77 71 70 70 70 70 71 71 73 74
108 107 102 101 102 103 103 110 111 112 109 110 106 105 107 111 108 109 106 105 102 102 100 99 100 95 92 92 91 91 90 92 93 88 93 91 73 74 77 79 79 78 75 76 79
116 112 110 108 101 100 99 99 102 102 112 109 106 112 109 113 113 109 110 112 111 109 105 105 105 102 100 99 98 98 98 100 100 101 101 102 84 75 84 87 86 83 78 79 84
118 117 115 112 109 103 104 105 100 100 102 105 110 113 112 113 114 110 111 111 108 110 112 113 113 111 105 106 104 104 104 106 107 106 98 104 90 81 85 88 87 87 88 88 89
124 122 119 115 113 112 111 109 105 103 104 105 104 104 106 111 110 114 115 115 113 114 114 112 110 114 115 115 111 111 113 114 114 109 114 102 108 90 91 96 100 99 96 96 96
129 125 124 119 118 114 114 112 113 109 111 109 108 105 104 103 103 112 115 116 113 113 117 118 118 117 119 115 115 119 120 113 111 110 115 110 111 97 99 101 101 98 101 100 99
130 134 133 127 125 124 118 115 115 116 111 110 116 112 108 105 105 106 105 103 104 105 106 102 100 103 102 113 121 124 112 116 113 113 118 122 112 111 109 105 104 106 107 103 102

GFSSW_250_spd_063.txt.gz
Wind_Speed
85 96 97 93 93 87 88 87 85 74 86 82 76 78 69 64 60 62 58 55 56 53 56 45 50 42 37 35 34 35 39 34 38 32 27 37 32 25 25 25 22 18 16 14 9
89 94 95 93 97 87 83 92 87 85 79 76 84 79 75 67 62 66 61 58 56 55 53 51 47 38 39 34 43 40 38 36 34 35 30 37 32 30 24 26 26 21 18 16 13
93 91 90 94 97 93 79 86 91 87 87 82 79 82 74 72 66 64 66 62 61 62 61 56 49 44 41 41 38 40 40 30 30 30 40 36 32 36 28 24 26 26 21 18 16
90 90 91 80 98 97 84 85 88 87 83 85 83 77 81 73 69 66 67 63 64 59 66 52 43 40 46 49 39 41 34 28 32 36 30 29 35 34 35 27 29 27 26 21 20
98 96 82 74 92 92 90 87 88 92 84 88 86 78 83 79 72 67 65 67 63 62 60 51 49 44 43 46 47 56 38 32 30 33 33 34 35 31 35 35 35 27 25 24 21
90 94 89 78 75 97 93 85 88 90 87 88 86 85 84 83 82 73 71 68 70 65 67 62 56 47 45 52 45 40 36 39 38 44 34 32 33 31 33 40 37 31 27 25 23
93 98 90 79 78 89 91 88 85 91 89 82 84 87 88 82 81 76 74 72 73 74 72 67 59 55 55 51 42 42 42 47 51 40 36 35 32 30 33 35 35 35 29 28 27
93 94 100 84 81 80 96 90 88 88 87 84 84 79 76 78 75 75 74 72 71 74 67 61 60 55 54 55 52 43 44 50 54 42 36 38 37 30 35 34 38 39 33 34 28
96 95 89 93 83 78 88 91 92 92 89 85 77 80 79 76 79 81 78 76 72 68 62 58 51 56 56 58 57 53 53 55 52 41 41 35 37 30 30 38 42 39 36 36 30
92 96 94 93 83 81 80 86 91 91 87 93 86 82 78 81 80 78 77 75 76 71 71 68 67 63 62 57 57 55 50 54 52 46 45 40 46 36 31 42 43 41 40 42 37
97 93 97 90 91 83 80 85 87 90 94 87 93 87 86 83 77 80 84 81 78 82 76 73 67 67 68 64 51 53 60 58 54 53 51 48 43 42 36 46 49 49 45 44 40
94 95 97 100 88 88 79 87 90 94 95 96 92 95 95 87 87 85 80 83 81 80 79 73 69 76 70 65 61 63 59 59 58 52 50 44 46 49 46 49 48 49 49 42 36
93 99 99 92 97 92 94 80 89 88 93 91 96 96 95 95 92 92 91 90 87 82 74 76 73 76 76 75 70 71 71 66 58 52 55 57 57 52 51 53 49 51 49 41 38
99 100 100 100 97 93 98 91 84 86 91 92 96 98 93 91 92 89 88 88 88 89 90 88 85 85 82 79 80 72 71 73 71 69 67 58 50 55 56 56 51 52 50 44 41
93 99 105 99 100 98 96 99 94 91 85 94 90 93 94 94 90 91 89 86 87 89 87 88 91 91 85 82 80 77 72 71 73 72 65 62 59 61 60 57 55 55 49 49 49
95 98 101 103 102 103 100 100 101 100 96 90 90 89 92 90 89 92 91 92 91 88 87 87 86 84 84 84 82 79 77 77 76 71 66 65 64 56 63 61 60 59 56 52 52
96 98 102 102 105 104 107 103 106 107 96 101 90 88 90 90 89 93 93 93 91 89 86 88 85 84 83 81 79 80 82 80 78 76 66 69 65 51 61 65 63 61 60 59 57
95 98 101 104 101 108 109 109 111 107 105 100 102 103 98 95 94 92 89 89 85 85 85 85 84 81 80 82 82 82 81 78 75 73 69 66 59 57 57 64 66 67 65 64 63
89 95 101 103 109 106 106 115 110 109 108 104 104 100 98 98 100 101 98 93 95 92 89 86 82 83 83 82 81 78 78 79 79 76 73 66 62 64 64 65 69 67 68 69 69
92 92 95 105 109 113 108 110 114 113 112 108 104 104 101 101 98 97 98 95 94 100 97 91 87 85 83 83 79 77 77 78 79 75 72 65 62 62 66 69 71 71 69 71 72
93 94 93 95 105 111 116 110 103 108 111 113 107 107 104 104 103 104 100 98 96 93 97 100 100 92 90 88 86 84 83 84 84 80 75 67 59 61 65 68 70 73 73 74 75
101 95 98 95 96 100 110 116 109 106 102 108 111 112 108 110 108 105 103 102 97 99 99 99 98 98 96 94 94 92 90 90 90 86 87 81 66 70 71 72 74 76 76 78 80
105 101 96 99 90 91 97 108 115 117 106 105 105 109 114 115 113 111 109 107 106 104 102 101 101 100 100 99 99 97 96 98 100 100 93 93 69 74 81 79 81 82 82 87 87
105 110 106 98 95 91 93 98 102 106 111 114 110 108 109 111 114 118 116 115 111 108 107 109 108 106 102 103 102 99 98 98 100 101 94 94 81 79 82 83 86 92 94 93 93
111 110 111 106 100 97 96 94 99 97 101 107 115 113 109 110 112 111 114 118 120 117 114 112 110 108 107 107 106 107 107 107 106 103 101 93 98 83 88 90 95 97 96 98 97
115 114 113 110 109 105 100 97 96 103 99 99 102 109 117 119 120 119 120 119 117 116 115 122 123 117 113 114 114 113 108 106 107 107 107 107 104 98 98 98 101 102 102 102 102
123 120 119 115 115 110 107 106 105 104 104 104 98 101 101 103 108 112 115 119 123 121 120 121 117 114 118 119 124 124 110 114 114 110 115 116 110 108 108 110 112 112 111 111 113

GFSSW_250_spd_069.txt.gz
Wind_Speed
118 120 118 115 111 109 106 103 97 89 86 85 80 86 78 77 83 63 70 62 62 52 49 49 46 48 39 38 35 36 39 30 28 33 30 26 24 24 27 28 29 25 22 16 15
115 121 116 120 113 109 110 102 91 91 90 90 85 77 84 72 76 70 60 71 53 60 57 50 49 51 45 43 37 34 26 26 32 25 24 28 23 28 26 28 30 25 22 18 17
117 120 117 115 108 109 110 106 92 96 94 89 81 81 78 81 75 66 69 61 62 64 61 62 57 49 45 42 40 36 33 33 33 26 25 20 23 25 22 29 29 28 22 16 18
118 118 120 119 111 107 104 105 103 96 93 85 86 89 79 83 76 69 72 62 61 61 67 60 52 58 53 46 44 42 42 39 37 33 25 28 26 21 23 29 28 32 23 23 16
117 117 118 120 113 109 112 102 106 103 100 91 90 82 83 87 81 73 74 71 62 63 60 63 62 57 55 51 47 46 39 42 34 31 28 31 25 26 26 31 31 28 34 26 27
110 116 119 111 115 108 109 103 106 107 104 86 91 88 84 82 82 74 76 70 70 66 59 58 51 53 51 50 50 49 44 42 36 34 33 27 26 29 30 35 31 28 30 34 30
111 116 122 117 114 112 108 103 110 102 103 99 95 88 91 86 86 78 76 76 69 71 70 59 59 55 55 48 48 46 50 42 39 40 26 26 30 34 33 34 24 27 26 33 31
110 112 113 112 105 107 111 106 109 102 102 103 98 92 91 89 79 81 77 82 79 76 68 72 67 60 54 53 53 54 53 51 44 43 38 44 42 37 30 31 31 33 29 30 33
104 110 112 110 105 95 106 112 103 111 105 103 99 101 95 90 84 84 80 83 78 73 71 66 71 65 62 59 56 50 52 55 52 47 46 44 42 36 36 35 34 36 37 36 31
103 111 113 115 105 93 101 113 104 101 108 102 107 101 99 96 93 86 88 82 83 81 73 75 69 63 61 62 65 60 55 53 51 50 48 47 42 39 34 39 38 37 39 38 34
106 111 117 109 110 95 97 107 110 103 107 105 100 102 100 97 94 90 85 84 84 85 78 76 70 72 73 68 65 62 64 57 53 53 51 44 43 46 43 41 38 41 41 41 38
107 105 111 108 107 95 98 99 107 107 93 104 104 108 101 98 97 98 88 86 85 79 79 76 75 77 75 68 66 62 60 61 57 56 54 54 52 48 41 45 45 47 39 44 45
104 105 108 115 106 103 94 89 97 97 100 109 101 103 110 102 97 102 90 92 89 84 80 80 81 78 76 76 76 70 68 64 61 58 57 53 49 48 50 50 55 51 49 49 53
97 100 105 107 114 107 97 95 90 89 101 103 106 109 113 113 103 102 97 92 92 90 88 82 79 81 79 77 72 75 77 75 72 62 58 57 55 59 59 63 56 61 59 59 55
97 104 104 109 110 112 96 100 103 94 93 107 102 96 98 106 110 103 99 100 94 90 88 86 83 84 83 82 83 75 69 69 65 62 64 62 61 65 66 62 65 62 67 67 62
99 103 105 108 110 111 113 103 100 105 95 95 103 100 93 95 96 107 103 107 106 99 97 96 90 89 86 83 80 80 79 77 71 67 66 67 63 61 65 71 72 73 72 67 63
103 103 108 106 109 111 111 109 110 106 107 96 90 100 96 94 97 97 103 107 107 104 101 103 98 98 95 90 84 84 86 82 81 77 70 73 70 62 72 80 81 76 70 68 66
100 102 102 108 114 114 112 111 115 96 101 103 91 91 96 94 96 97 98 101 102 101 107 102 98 96 95 92 90 90 91 89 84 83 83 82 78 79 79 79 80 78 72 70 72
96 99 99 101 102 110 114 115 112 104 99 103 107 100 88 90 90 95 97 97 98 98 98 97 95 94 94 96 97 97 97 97 95 94 91 86 84 81 80 76 80 79 79 79 74
95 100 102 100 102 106 112 119 112 105 102 105 104 107 103 94 92 95 97 96 96 98 102 105 106 101 102 103 102 99 96 97 96 92 89 88 83 81 83 81 77 77 81 82 81
96 98 101 105 104 103 110 114 115 111 110 106 104 105 108 113 106 101 99 98 97 97 100 100 103 104 102 101 100 99 98 98 96 94 93 88 86 84 85 84 81 81 80 83 86
95 101 102 98 102 106 106 111 116 114 108 109 103 103 109 110 109 104 102 101 101 103 104 103 104 103 101 102 103 102 102 100 99 94 92 87 82 81 83 84 85 83 80 81 84
95 98 108 106 107 106 107 110 108 117 118 108 109 105 103 108 112 110 107 108 104 104 105 105 104 102 100 99 97 96 95 96 94 95 91 93 87 91 92 90 89 87 89 90 90
100 100 104 112 110 108 110 108 108 111 115 119 112 113 112 107 106 109 110 110 110 109 109 110 108 107 104 103 104 105 103 104 105 106 98 98 97 97 96 95 93 92 93 94 93
102 105 104 104 111 113 113 111 112 110 113 118 122 118 114 111 107 109 109 112 112 112 113 112 108 108 109 110 111 110 110 110 109 106 106 97 100 100 100 102 100 97 95 94 96
103 104 105 103 102 109 112 106 109 113 113 116 112 117 122 117 115 113 110 110 108 109 115 115 115 115 114 114 113 111 110 109 108 108 106 103 101 102 105 105 103 103 101 100 101
105 102 105 103 105 105 104 106 100 105 108 114 115 116 116 123 122 117 117 120 116 111 110 112 114 114 115 116 117 117 109 111 113 113 111 109 104 108 108 107 106 106 106 106 104

GFSSW_250_spd_072.txt.gz
Wind_Speed
111 131 135 124 115 113 101 110 99 96 94 95 90 84 83 81 74 69 74 66 63 56 55 50 42 42 37 37 38 42 29 24 25 26 23 23 21 23 21 25 27 31 26 24 23
104 126 134 128 121 113 101 107 100 101 98 95 90 88 88 86 76 76 65 77 58 60 55 51 48 50 42 43 40 33 34 27 24 21 21 24 20 19 24 25 31 28 21 24 22
101 119 133 128 125 109 105 110 104 101 100 92 88 90 88 89 74 76 70 67 71 68 62 56 48 49 48 48 47 42 35 29 25 19 22 22 24 20 25 28 28 31 34 28 25
102 111 134 129 126 114 107 114 107 106 101 92 86 88 88 91 83 87 72 71 65 67 66 58 59 56 51 47 44 45 36 34 31 25 20 25 24 23 22 25 25 32 37 34 29
98 107 128 130 128 117 106 113 113 105 105 92 93 89 86 89 87 63 77 78 71 67 63 66 65 61 50 47 49 45 36 35 34 34 30 34 31 26 21 24 27 31 32 31 33
103 110 120 126 128 121 112 110 109 110 111 100 94 83 96 91 96 79 76 75 74 76 66 63 59 55 58 55 52 48 48 42 40 36 32 33 33 25 18 18 25 31 31 30 32
103 108 116 129 125 123 118 113 111 105 109 108 96 94 93 97 83 85 78 73 81 73 64 64 62 62 60 63 55 51 48 48 41 39 38 35 29 25 19 28 30 28 25 27 33
104 110 116 127 125 124 118 115 114 105 103 112 98 96 89 88 93 95 88 80 80 78 63 70 61 59 63 62 56 60 46 47 44 44 42 37 33 37 32 32 37 30 36 33 27
100 106 115 123 125 120 118 121 118 107 106 110 106 99 99 94 82 93 90 80 84 77 65 69 60 57 63 57 49 49 47 45 40 44 43 46 41 38 36 36 36 34 29 29 32
99 103 113 118 125 121 115 117 124 109 110 108 105 102 100 96 93 86 86 91 84 84 72 72 65 64 60 61 56 55 56 52 48 45 44 44 45 44 40 39 38 36 33 38 37
95 104 111 116 120 117 121 113 114 118 102 113 103 103 96 97 96 92 89 87 87 85 74 71 74 71 66 62 63 60 57 55 53 50 50 46 43 47 44 42 43 41 41 41 36
97 104 110 113 120 117 118 112 117 112 107 112 114 112 103 97 92 92 88 87 86 86 84 83 69 77 72 69 66 59 57 55 57 57 55 56 53 48 49 50 49 54 51 42 50
92 100 106 110 116 116 112 112 118 117 115 104 116 113 111 112 99 96 100 90 81 84 90 83 82 77 75 76 69 69 70 59 58 54 53 54 57 55 54 52 52 53 50 48 50
90 90 107 109 109 115 110 105 117 116 124 103 105 106 113 117 113 99 99 101 91 89 87 80 82 78 78 71 75 73 70 67 64 62 55 54 54 55 57 55 52 54 53 52 57
89 90 102 110 111 116 111 101 103 119 125 117 103 102 109 109 113 110 103 101 96 97 92 79 78 82 77 77 79 80 76 70 68 66 66 63 59 64 64 64 57 54 58 65 61
87 91 97 107 108 110 121 108 98 130 118 120 110 99 107 104 105 112 110 107 98 98 99 94 92 89 75 75 75 75 75 73 73 73 70 67 64 60 65 64 61 61 64 63 64
91 96 95 104 111 111 114 114 113 117 120 115 112 105 103 107 106 108 104 108 104 101 100 97 91 90 90 87 84 81 78 78 76 69 66 71 68 61 64 69 69 63 64 70 72
87 95 98 102 112 110 110 120 109 107 105 110 93 105 100 96 104 105 106 108 108 107 102 100 98 100 92 93 93 95 92 90 86 83 80 79 73 72 74 77 82 78 79 75 77
85 96 98 99 109 113 111 123 112 105 104 101 95 96 99 101 100 103 106 102 97 102 103 101 99 96 99 97 94 94 93 91 91 90 84 83 84 85 84 81 81 84 83 83 87
85 85 96 101 106 118 118 116 113 104 103 106 97 89 88 92 94 96 104 104 102 96 98 106 107 105 103 102 100 95 96 96 94 95 95 94 93 91 85 86 86 86 87 88 91
89 87 93 100 103 109 119 114 114 108 108 105 107 103 99 94 94 93 92 89 98 105 108 107 105 105 108 106 106 107 104 106 107 104 102 99 94 89 86 85 85 86 88 88 90
94 92 95 97 105 112 112 119 118 113 109 109 109 111 108 104 102 102 94 95 95 97 100 102 107 109 108 108 108 107 106 105 102 99 97 93 92 90 89 89 91 92 92 91 91
94 95 99 102 105 108 111 114 118 118 112 107 110 108 110 111 110 109 109 105 100 98 100 102 104 106 107 105 101 100 100 102 104 102 96 98 94 96 95 95 96 96 97 97 96
99 100 100 104 103 107 109 110 119 120 120 115 109 104 106 111 110 109 107 110 112 110 107 104 101 103 100 99 99 99 98 99 102 102 98 100 99 98 99 100 98 98 98 96 97
103 101 102 98 101 104 108 111 112 119 122 124 117 112 106 106 111 111 111 110 108 109 110 109 107 106 105 104 103 100 101 101 101 98 100 92 97 97 97 100 99 99 99 99 98
107 105 104 99 97 102 105 108 112 112 119 121 123 118 113 111 105 107 108 110 111 110 111 111 106 102 104 102 104 103 102 102 102 101 100 97 98 100 103 104 103 103 102 102 103
102 105 109 103 99 100 101 103 108 109 112 115 122 125 121 117 113 109 108 111 114 114 115 113 113 111 110 106 106 108 101 105 104 103 103 100 98 104 107 109 108 108 108 108 108

GFSSW_250_spd_075.txt.gz
Wind_Speed
85 112 119 142 133 122 122 119 111 106 105 101 91 80 80 86 70 70 74 71 67 64 55 56 50 49 45 42 35 33 34 27 23 24 19 20 18 15 15 17 26 25 25 21 23
94 111 115 143 139 125 117 119 109 112 102 99 104 91 84 82 79 71 69 70 66 61 63 54 52 51 45 44 40 32 31 32 32 29 18 17 17 16 16 17 27 27 24 25 24
93 103 112 144 139 127 120 122 108 115 103 103 98 96 93 81 92 80 67 63 71 62 58 57 57 58 46 45 41 34 32 33 28 24 18 14 13 12 20 19 22 22 25 28 26
94 106 108 139 146 135 120 118 119 104 112 108 101 96 92 88 87 82 81 70 65 66 63 65 58 61 54 49 44 43 33 35 28 26 23 21 20 14 25 21 17 17 28 27 27
95 103 107 133 142 139 119 121 112 105 103 105 104 101 96 92 90 81 79 63 76 73 69 62 61 58 56 50 46 44 41 40 38 35 28 27 22 20 30 26 20 16 25 27 27
97 104 108 127 140 138 121 125 105 108 111 106 103 103 97 100 87 91 86 79 79 68 72 71 67 61 57 49 48 52 45 41 38 39 27 27 31 25 23 21 18 16 20 26 30
99 104 107 126 137 140 119 127 109 110 110 108 103 105 104 95 93 86 89 83 84 71 75 71 72 62 66 61 57 52 49 45 43 46 32 33 31 27 23 24 22 24 29 23 21
97 101 110 120 129 136 126 125 121 110 104 104 104 97 112 98 94 95 91 88 86 78 67 61 69 71 69 57 57 53 59 49 49 43 42 40 35 35 32 29 30 28 26 23 29
97 101 109 114 126 139 129 122 126 110 113 107 105 103 99 106 92 96 95 90 81 85 72 62 67 63 58 56 60 47 58 51 51 46 47 39 39 37 36 35 33 26 27 28 30
97 101 109 117 122 134 128 134 118 126 112 98 111 101 97 101 103 95 95 95 83 82 75 69 67 70 68 58 58 61 58 51 47 49 40 43 38 41 40 40 35 34 37 31 34
92 100 104 111 112 123 134 133 116 111 115 109 103 109 101 96 98 99 92 96 93 89 71 75 74 62 72 71 61 60 52 55 50 44 44 40 39 41 46 42 36 34 37 31 33
92 97 102 107 117 123 130 124 123 114 113 114 114 107 109 104 95 101 94 92 92 91 80 78 73 79 76 73 66 61 54 60 58 56 49 49 46 46 45 44 42 41 40 40 42
91 98 102 107 107 114 125 128 124 124 114 116 114 111 113 107 97 93 96 92 85 96 88 81 81 74 79 73 71 63 57 59 49 52 53 52 54 50 50 48 45 48 45 46 44
92 97 102 107 105 114 123 123 134 124 125 112 122 107 112 114 107 100 96 99 95 87 92 94 95 81 77 78 72 72 68 66 58 53 50 50 50 51 50 49 47 45 47 46 46
92 94 94 103 100 112 117 123 125 131 125 122 121 110 112 113 110 107 98 96 97 94 93 86 91 85 80 81 82 74 70 76 71 65 63 58 57 56 56 53 51 48 50 53 54
88 89 92 97 110 112 114 126 121 134 127 116 122 120 109 109 117 112 107 101 98 99 89 87 87 86 88 88 82 80 77 77 74 73 64 68 64 65 65 63 59 59 62 62 63
91 90 94 95 106 108 114 126 118 134 126 117 117 120 115 105 111 114 109 105 98 94 97 95 93 86 82 82 84 77 81 81 79 72 62 66 66 63 63 64 63 64 65 63 64
89 88 89 92 102 105 112 119 124 106 122 117 106 118 123 114 104 110 116 106 105 99 96 93 88 92 89 94 79 86 89 77 80 78 72 71 67 64 67 69 72 69 65 66 68
87 85 85 91 96 107 111 117 109 104 92 111 111 118 123 117 105 108 109 109 104 100 103 95 96 97 93 94 93 86 87 86 81 83 77 77 72 73 72 69 73 76 74 76 74
90 92 85 89 94 103 115 114 107 102 103 98 106 103 114 120 118 100 111 113 111 111 109 109 108 100 101 102 100 95 95 97 93 92 88 86 84 84 80 82 82 83 85 86 86
90 92 90 94 91 101 108 111 112 106 102 104 100 95 93 99 108 115 100 102 113 114 114 113 112 112 111 104 100 101 98 98 98 97 92 88 85 86 89 88 85 86 86 87 90
94 94 93 90 97 99 101 110 113 114 101 105 105 105 92 90 93 97 105 99 100 104 105 109 115 115 113 112 110 109 109 105 100 96 96 96 93 90 88 90 89 87 90 92 93
95 95 94 96 99 98 98 106 114 112 105 99 100 111 114 95 96 96 95 99 105 104 103 107 113 110 109 112 113 114 110 108 104 101 99 101 94 94 92 94 95 95 98 100 98
95 95 93 96 98 97 102 106 111 114 111 105 100 105 114 120 111 98 98 97 97 98 105 110 109 112 116 111 108 108 108 105 106 107 102 99 96 95 98 97 98 101 102 100 102
99 101 99 94 99 100 103 102 108 116 116 107 105 95 107 113 113 119 120 119 106 99 101 105 108 109 104 102 103 102 104 105 107 104 106 98 103 100 98 103 105 103 103 104 100
98 101 103 99 95 96 105 102 104 110 117 115 105 101 97 104 109 106 105 107 114 119 118 113 105 107 114 114 109 105 105 107 105 107 105 100 101 101 105 105 106 109 106 108 104
101 100 105 104 101 99 97 103 105 106 113 121 116 108 105 103 108 110 110 107 106 109 112 112 109 106 106 104 108 116 110 116 107 104 102 104 94 104 107 110 108 107 105 104 105